Regional Weather Roundup
Issued by NWS

Home | Current Version | Previous Version | Graphics & Text | Print | Product List | Glossary On
Versions: 1 2 3 4 5 6 7 8 9 10 11 12 13 14 15 16 17 18 19 20 21 22 23 24 25 26 27 28 29 30 31 32 33 34 35 36 37 38 39 40 41 42 43 44 45 46 47 48 49 50
000
ASUS43 KLOT 231610
RWRIL

ILLINOIS REGIONAL WEATHER ROUNDUP
NATIONAL WEATHER SERVICE CHICAGO/ROMEOVILLE IL
1000 AM CST SUN NOV 23 2014

NOTE: "FAIR" INDICATES FEW OR NO CLOUDS BELOW 12,000 FEET WITH NO
SIGNIFICANT WEATHER AND/OR OBSTRUCTIONS TO VISIBILITY.

* THESE STATIONS ARE NOT UNDER NWS QUALITY CONTROL. THEY ALSO MAY NOT
  REPORT WEATHER SUCH AS PRECIPITATION OR FOG.

ILZ001-002-007-009-015-016-024-231700-
NORTHWEST ILLINOIS

CITY           SKY/WX    TMP DP  RH WIND       PRES   REMARKS
MOLINE         CLOUDY    50  48  93 SE13      29.60F FOG
STERLING*      CLOUDY    48  45  87 S9        29.64F
SAVANNA*       RAIN      49  47  93 SE6       29.62F
$$

ILZ003-004-008-010-011-017-018-231700-
NORTH CENTRAL ILLINOIS

CITY           SKY/WX    TMP DP  RH WIND       PRES   REMARKS
ROCKFORD       LGT RAIN  47  45  93 S13       29.68F FOG
FREEPORT*      RAIN      46  45  95 S10       29.65F
ROCHELLE*      LGT RAIN  46  45  97 S15       29.67F
DE KALB*         N/A     45  43  94 SE13G18   29.69F
PERU*          CLOUDY    49  46  87 SE10      29.68F
$$

ILZ005-006-012>014-019>023-231700-
NORTHEAST ILLINOIS

CITY           SKY/WX    TMP DP  RH WIND       PRES   REMARKS
CHICAGO-OHARE  LGT RAIN  50  44  80 S16       29.71F
CHICAGO-MIDWAY LGT RAIN  53  46  77 S12       29.72F
AURORA         CLOUDY    49  43  80 SE12      29.70F
LANSING*       CLOUDY    51  45  79 S12       29.75F
JOLIET*        CLOUDY    50  44  79 S10G18    29.72F
WAUKEGAN       LGT RAIN  49  44  83 S15       29.70F
DUPAGE AIRPORT LGT RAIN  49  45  86 S10       29.70F
KANKAKEE*      CLOUDY    50  45  83 S12G17    29.74F
WHEELING       CLOUDY    50  45  83 S13       29.73F
MORRIS*        CLOUDY    48  46  90 S13       29.71F
ROMEOVILLE*    CLOUDY    49  44  83 S14G21    29.72F
NORTHERLY ISL    N/A     52  43  71 S16         N/A
$$

LMZ740>746-231700-
SOUTHERN LAKE MICHIGAN

STATION/POSITION SKY/WX   TEMP    WIND        PRES    VSBY  WAVE
                          AIR SEA DIR/SP/G                  HT/PER
                          (F)     (DEG/KT/KT) (MB)    (MI)  (FT/S)
SOUTHERN BUOY              45 42  170/ 14/ 16 1007.2F         2/ 5
WAUKEGAN HARBOR            45     180/ 13/ 14   N/A
HARRISON CRIB              49     180/ 20/ 21   N/A
BURNHAM HARBOR             52     190/ 13/ 17   N/A
CALUMET HARBOR             52     170/ 10/ 20 1005.9F
MICHIGAN CITY              51     150/ 13/ 17   N/A
$$

ILZ025>027-034>036-040-047-049-050-058-095>099-231700-
WEST-CENTRAL ILLINOIS

CITY           SKY/WX    TMP DP  RH WIND       PRES   REMARKS
QUINCY         LGT RAIN  52  49  89 SE9       29.58F FOG
GALESBURG*     DRIZZLE   49  47  93 SE8       29.61F
MACOMB*        CLOUDY    51  49  93 S12       29.62F
JACKSONVILLE*  LGT RAIN  55  50  86 S14G20    29.63F
PITTSFIELD*    CLOUDY    53  49  88 SE10      29.61F
$$

ILZ028>032-037-038-041>044-048-051>054-059>061-231700-
CENTRAL ILLINOIS

CITY           SKY/WX    TMP DP  RH WIND       PRES   REMARKS
PONTIAC        CLOUDY    50  46  87 S17G23    29.71F
BLOOMINGTON    LGT RAIN  48  46  93 S17       29.70F
DECATUR        CLOUDY    52  46  80 S12       29.70F
PEORIA         CLOUDY    53  46  77 S14       29.65F
LACON*         CLOUDY    51  46  80 S14       29.65F
LINCOLN*       CLOUDY    52  47  82 S14G20    29.67F
SPRINGFIELD    CLOUDY    54  48  80 SE18      29.66F
TAYLORVILLE    CLOUDY    52  46  82 SE12      29.68F
$$

ILZ033-039-045-046-055>057-062-063-231700-
EAST-CENTRAL ILLINOIS

CITY           SKY/WX    TMP DP  RH WIND       PRES   REMARKS
CHAMPAIGN      CLOUDY    52  47  83 SE16      29.73F
DANVILLE*      CLOUDY    53  47  78 S13       29.73F
RANTOUL*       CLOUDY    52  48  85 S8        29.73F
MATTOON        CLOUDY    54  44  69 S15G23    29.72F
PARIS*         CLOUDY    55  47  76 S16G25    29.76F
$$

ILZ079-100>102-231700-
SOUTHWEST ILLINOIS

CITY           SKY/WX    TMP DP  RH WIND       PRES   REMARKS
BELLEVILLE     LGT RAIN  55  54  98 SE15G22   29.66F
CAHOKIA*       LGT RAIN  56  52  86 SE13      29.65F
SPARTA*        DRIZZLE   54  50  89 SE10      29.69F
$$

ILZ064>066-069>071-074>076-080>082-084>086-088>090-092>094-231700-
SOUTH-CENTRAL ILLINOIS

CITY           SKY/WX    TMP DP  RH WIND       PRES   REMARKS
CARBONDALE     CLOUDY    57  49  74 SE15G23   29.70F
CAIRO*         CLOUDY    58  52  79 SE10      29.70F
EFFINGHAM*     CLOUDY    55  42  62 SE12      29.72F
MARION         CLOUDY    57  48  72 S12       29.72F
MT. VERNON     CLOUDY    54  45  71 SE7       29.73F
CENTRALIA*     LGT RAIN  52  46  82 SE13G20   29.71F
SALEM*         LGT RAIN  55  48  78 SE9       29.71F
METROPOLIS*    CLOUDY    57  51  80 SE7       29.71F
$$

ILZ067-068-072-073-078-083-087-091-231700-
SOUTHEAST ILLINOIS

CITY           SKY/WX    TMP DP  RH WIND       PRES   REMARKS
LAWRENCEVILLE  CLOUDY    52  49  89 SE12      29.79F
FLORA*         CLOUDY    53  46  76 SE13      29.74F
FAIRFIELD*     CLOUDY    53  45  74 SE10      29.74F
HARRISBURG*    CLOUDY    55  50  82 SE10      29.75F
ROBINSON*      CLOUDY    51  48  89 SE13      29.78F
CARMI*         CLOUDY    56  48  76 SE16      29.75F
$$

ABBREVIATIONS USED IN REMARKS
   TC - TEMPERATURE IN CELSIUS
  WCI - WIND CHILL INDEX
   HX - HEAT INDEX
  VSB - VISIBILITY
$$




USA.gov is the U.S. government's official web portal to all federal, state and local government web resources and services.